ROMMA est une association bénévole à but non lucratif. Votre soutien est indispensable : ADHERER à ROMMA ou FAIRE un DON

Chambon - (38, Isère)

Oisans (2460 m)   Longitude: 06° 10' 42" E   Latitude: 45° 01' 32" N Station partenaire n°803
 

Détail journalier du     <<     >>

Température Humidité Vent Dir Rafale Dir. rafale Neige 1 Neige 2
Heure (°C) (%) (km/h) (km/h) (cm) (cm)
01:00 8.95921SE44SE04
02:00 8.35918ESE57ESE03
03:00 7.26015ENE53ESE03
04:00 8.45116ENE53SE02
05:00 8.55119ESE53ESE03
06:00 8.45120ESE56ESE02
07:00 7.65918ENE66ENE03
08:00 9.64524ENE64ENE02
09:00 8.85022SE61SE02
10:00 7.9589NE54NE03
11:00 9.75411S57S02
12:00 9.95616SE77SE02
13:00 8.86110ESE64ESE03
14:00 11.24815ESE78S02
15:00 5.78421NE88S04
16:00 7.3739NE72S03
17:00 6.9744NE65NE03
18:00 8.2656E78S02
19:00 7.56611N77S02
20:00 3.59512NE59SO04
21:00 5.5777NE54NE04
22:00 6.2704ESE49NNO03
23:00 5.8709N60ESE03
minuit 1.89411N43N03

Graphique du 23-10-2019

 

Serveur OMMA